CZ-6A DEB

Satellite information

Favourite Embed

Satellite Type and Status

DEBRISIN ORBIT

Key statistics

Satellite CZ-6A DEB at a glance.

Uptime

1129

Days in orbit

Revolutions

≈ 14.2

Per day

Orbit

SSO

Sun Synchronous Orbit

Inclination

98.8

Latest

Satellite identification and parameters

Extended collection of information and parameters for CZ-6A DEB.

Object identification

Identified? True

Debris? True

Object name: CZ-6A DEB

International designator: 2022-151XV

Object number (NORAD): 55523

Object ID (CCSDS): 55523

Country: PEOPLES REPUBLIC OF CHINA (PRC)

Current information (Y/N): Y

RCS size: SMALL

Orbital parameters

Period: 101.278 minutes

Inclination: 98.8302 deg

SMA: 7197.326 km

Apoapsis: 856.287 km

Periapsis: 782.095 km

RAAN: 351.1849 deg

Eccentricy: 0.0051541

Argument of periapsis: 103.3641 deg

Mean anomaly: 257.3289 deg

Mean motion: 14.21824503 rev/day

Mean motion (dot): 0.00007607 rev/day2

B* drag term: 0.0034248 1/REarth

Two-line elements (TLE)

Creation date: Dec. 12, 2025, 7:16 a.m.

Reference frame: TEME

Reference center: EARTH

Epoch: Dec. 11, 2025, 10:48 p.m. UTC

TLE line 0: 0 CZ-6A DEB

TLE line 1: 1 55523U 22151XV 25345.95045571 .00007607 00000-0 34248-2 0 9999

TLE line 2: 2 55523 98.8302 351.1849 0051541 103.3641 257.3289 14.21824503153653

Live tracking on map

Real-time ground track for satellite CZ-6A DEB.

In-orbit conjunctions

A list of the most updated potential collisions computed for object CZ-6A DEB.

Target Orbit TCA Probability of collision Miss distance Type
FENGYUN 1C DEB SSO 2025-09-26 17:26:12 0.0002038562 412.0 (m) DEBRIS
EXPLORER 30 LEO 2025-04-10 01:55:14 0.0002252093 657.0 (m) PAYLOAD
CZ-6A DEB LEO 2024-10-07 19:34:34 0.0002191441 149.0 (m) DEBRIS

Associated space launch

Chinese satellite reported for atmospheric/ocean/environmental/spatial parameter research purposes, details TBD.

CZ-6A DEB was lifted into orbit during the mission ‘Long March 6A | Yunhai 3’, on board a Long March 6A space rocket.

The launch took place on Nov. 11, 2022, 10:52 p.m. from Launch Complex 9A.

For more information about the launch, click the button.

Launch to space Long March 6A | Yunhai 3
Long March 6A | Yunhai 3

Agency: N/A

Status: Launch Successful

Launch date: Nov. 11, 2022, 10:52 p.m. UTC

Rocket: Long March 6A

Launch pad: Launch Complex 9A

Location: Taiyuan Satellite Launch Center, People's Republic of China

...

Latest news about this satellite

There are no fresh news available about this satellite. Check back as we update our databases every day.


Newsletter sign-up

Weekly statistics, charts and insights to help you stay on top of the space industry.